Radiation Dose at Monitoring Post of Fukushima Daini Nuclear Power Station
Date,Time,MP-1(microSv/h),MP-2(microSv/h),MP-3(microSv/h),MP-4(microSv/h),MP-5(microSv/h),MP-6(microSv/h),MP-7(microSv/h),Wind Direction,Wind Velocity(m/s),Rain
2017/10/17,00:00,0.329,0.208,0.336,0.316,0.309,0.167,0.102,north,3.6,Yes
2017/10/17,00:10,0.330,0.208,0.334,0.315,0.311,0.167,0.104,north,3.8,Yes
2017/10/17,00:20,0.331,0.209,0.335,0.315,0.309,0.168,0.104,north,2.0,Yes
2017/10/17,00:30,0.328,0.207,0.336,0.315,0.311,0.167,0.102,north,1.5,Yes
2017/10/17,00:40,0.329,0.208,0.334,0.315,0.308,0.168,0.102,north,2.8,Yes
2017/10/17,00:50,0.328,0.206,0.335,0.316,0.308,0.166,0.102,north-northwest,5.8,Yes
2017/10/17,01:00,0.328,0.207,0.333,0.316,0.310,0.167,0.102,north-northwest,3.9,Yes
2017/10/17,01:10,0.330,0.208,0.334,0.314,0.309,0.168,0.102,north-northwest,3.4,Yes
2017/10/17,01:20,0.330,0.206,0.335,0.316,0.311,0.166,0.103,north,3.8,Yes
2017/10/17,01:30,0.331,0.209,0.335,0.315,0.308,0.167,0.103,north-northwest,2.6,Yes
2017/10/17,01:40,0.330,0.207,0.337,0.315,0.310,0.168,0.103,north-northwest,2.7,Yes
2017/10/17,01:50,0.328,0.208,0.335,0.316,0.310,0.168,0.103,north,4.3,Yes
2017/10/17,02:00,0.331,0.208,0.334,0.314,0.308,0.167,0.102,north,3.6,Yes
2017/10/17,02:10,0.329,0.208,0.336,0.315,0.311,0.168,0.102,north,4.6,Yes
2017/10/17,02:20,0.329,0.208,0.334,0.316,0.310,0.169,0.103,north,3.5,Yes
2017/10/17,02:30,0.332,0.210,0.336,0.315,0.310,0.169,0.104,north-northwest,1.4,Yes
2017/10/17,02:40,0.332,0.209,0.338,0.317,0.313,0.168,0.104,north-northwest,2.4,Yes
2017/10/17,02:50,0.331,0.210,0.336,0.316,0.310,0.168,0.105,north-northwest,2.6,Yes
2017/10/17,03:00,0.331,0.211,0.336,0.317,0.312,0.169,0.104,north-northwest,3.0,Yes
2017/10/17,03:10,0.331,0.209,0.336,0.317,0.312,0.168,0.104,north-northwest,4.8,Yes
2017/10/17,03:20,0.330,0.208,0.334,0.315,0.310,0.169,0.103,north-northwest,5.2,Yes
2017/10/17,03:30,0.331,0.209,0.335,0.316,0.312,0.168,0.103,north,3.5,Yes
2017/10/17,03:40,0.331,0.209,0.334,0.317,0.311,0.170,0.104,north,4.9,Yes
2017/10/17,03:50,0.331,0.208,0.336,0.314,0.310,0.168,0.103,north,6.2,Yes
2017/10/17,04:00,0.329,0.209,0.335,0.316,0.310,0.168,0.104,north,5.9,Yes
2017/10/17,04:10,0.329,0.208,0.332,0.314,0.307,0.167,0.103,north,6.2,No
2017/10/17,04:20,0.329,0.207,0.335,0.315,0.312,0.167,0.102,north,5.9,Yes
2017/10/17,04:30,0.327,0.206,0.332,0.314,0.309,0.167,0.101,north,4.3,Yes
2017/10/17,04:40,0.328,0.206,0.333,0.314,0.308,0.166,0.101,north,4.5,Yes
2017/10/17,04:50,0.329,0.208,0.334,0.315,0.308,0.167,0.101,north,3.8,Yes
2017/10/17,05:00,0.329,0.207,0.333,0.314,0.308,0.166,0.102,north,5.4,Yes
2017/10/17,05:10,0.329,0.208,0.334,0.315,0.310,0.167,0.102,north,4.8,Yes
2017/10/17,05:20,0.331,0.210,0.336,0.316,0.310,0.168,0.103,north,4.3,Yes
2017/10/17,05:30,0.332,0.209,0.335,0.315,0.310,0.169,0.103,north,3.5,Yes
2017/10/17,05:40,0.330,0.209,0.335,0.314,0.310,0.168,0.103,north-northwest,4.0,No
2017/10/17,05:50,0.330,0.207,0.333,0.316,0.308,0.167,0.102,north-northwest,3.5,No
2017/10/17,06:00,0.329,0.206,0.333,0.314,0.309,0.166,0.101,north-northwest,3.0,No
2017/10/17,06:10,0.326,0.207,0.333,0.314,0.307,0.166,0.101,north,2.8,No
2017/10/17,06:20,0.329,0.205,0.332,0.313,0.307,0.165,0.099,north,2.7,No
2017/10/17,06:30,0.328,0.205,0.332,0.313,0.307,0.165,0.100,north,3.1,No
2017/10/17,06:40,0.326,0.205,0.332,0.314,0.307,0.165,0.099,north,3.6,No
2017/10/17,06:50,0.327,0.205,0.330,0.313,0.309,0.164,0.099,north,3.3,No
2017/10/17,07:00,0.325,0.204,0.334,0.314,0.306,0.163,0.100,north,3.8,No
2017/10/17,07:10,0.328,0.206,0.330,0.312,0.308,0.164,0.100,north,3.8,No
2017/10/17,07:20,0.326,0.204,0.332,0.313,0.306,0.163,0.099,north-northwest,3.0,No
2017/10/17,07:30,0.325,0.204,0.332,0.315,0.308,0.164,0.100,north-northwest,3.7,No
2017/10/17,07:40,0.327,0.203,0.331,0.310,0.307,0.164,0.100,north,4.1,No
2017/10/17,07:50,0.325,0.204,0.332,0.312,0.306,0.163,0.099,north-northwest,4.6,No
2017/10/17,08:00,0.328,0.204,0.332,0.314,0.308,0.164,0.099,north-northwest,4.4,No
2017/10/17,08:10,0.325,0.204,0.334,0.312,0.306,0.163,0.099,north-northwest,4.9,No
2017/10/17,08:20,0.328,0.205,0.332,0.314,0.309,0.163,0.100,-,CALM,No
2017/10/17,08:30,0.326,0.203,0.332,0.311,0.306,0.164,0.099,-,CALM,No
2017/10/17,08:40,0.327,0.204,0.332,0.314,0.307,0.164,0.099,north-northwest,3.8,No
2017/10/17,08:50,0.325,0.204,0.333,0.312,0.306,0.163,0.099,north-northwest,4.1,No
2017/10/17,09:00,0.326,0.203,0.332,0.312,0.307,0.163,0.099,north-northwest,3.3,No
2017/10/17,09:10,0.327,0.204,0.332,0.312,0.306,0.164,0.099,north-northwest,2.9,No
2017/10/17,09:20,0.327,0.203,0.332,0.314,0.307,0.164,0.099,north-northwest,2.3,No
2017/10/17,09:30,0.328,0.205,0.330,0.313,0.306,0.164,0.098,north,2.0,No
2017/10/17,09:40,0.326,0.204,0.333,0.313,0.308,0.165,0.098,north-northwest,2.5,No
2017/10/17,09:50,0.327,0.205,0.332,0.312,0.304,0.163,0.098,north,2.5,No
2017/10/17,10:00,0.327,0.204,0.334,0.314,0.309,0.165,0.098,north,1.8,No
2017/10/17,10:10,0.324,0.203,0.331,0.311,0.308,0.164,0.098,northeast,2.1,No
2017/10/17,10:20,0.328,0.205,0.334,0.311,0.302,0.164,0.099,northeast,2.2,No
2017/10/17,10:30,0.324,0.204,0.333,0.315,0.309,0.164,0.099,northeast,2.7,No
2017/10/17,10:40,0.326,0.206,0.335,0.311,0.305,0.163,0.098,east-northeast,2.7,No
2017/10/17,10:50,0.329,0.205,0.333,0.313,0.305,0.165,0.098,northeast,3.1,No
2017/10/17,11:00,0.325,0.204,0.333,0.314,0.310,0.164,0.099,east,2.3,No
2017/10/17,11:10,0.328,0.206,0.332,0.311,0.307,0.164,0.098,northeast,3.3,No
2017/10/17,11:20,0.329,0.203,0.332,0.310,0.304,0.165,0.099,east-northeast,2.8,No
2017/10/17,11:30,0.324,0.204,0.333,0.314,0.309,0.165,0.099,east-northeast,3.2,No
2017/10/17,11:40,0.328,0.204,0.333,0.315,0.310,0.164,0.098,northeast,3.0,No
2017/10/17,11:50,0.328,0.204,0.335,0.313,0.304,0.166,0.099,east-northeast,2.7,No
2017/10/17,12:00,0.325,0.205,0.331,0.312,0.308,0.165,0.099,east,2.2,No
2017/10/17,12:10,0.328,0.206,0.330,0.314,0.308,0.164,0.098,east,1.9,No
2017/10/17,12:20,0.329,0.205,0.334,0.316,0.307,0.166,0.099,northeast,0.9,No
2017/10/17,12:30,0.326,0.205,0.332,0.314,0.305,0.164,0.099,east,1.8,No
2017/10/17,12:40,0.329,0.206,0.330,0.312,0.309,0.164,0.099,east,1.7,No
2017/10/17,12:50,0.329,0.203,0.331,0.313,0.308,0.165,0.099,southeast,1.0,No
2017/10/17,13:00,0.326,0.205,0.335,0.317,0.305,0.165,0.099,east,1.0,No
2017/10/17,13:10,0.330,0.206,0.333,0.315,0.308,0.165,0.099,east-southeast,1.7,No
2017/10/17,13:20,0.329,0.205,0.332,0.313,0.309,0.166,0.099,southeast,1.3,No
2017/10/17,13:30,0.329,0.205,0.334,0.317,0.306,0.166,0.100,east-southeast,1.4,No
2017/10/17,13:40,0.329,0.206,0.335,0.316,0.308,0.165,0.098,south-southeast,1.3,No
2017/10/17,13:50,0.329,0.205,0.332,0.315,0.310,0.166,0.099,south-southeast,1.8,No
2017/10/17,14:00,0.331,0.206,0.332,0.319,0.307,0.166,0.099,east-southeast,1.2,No
2017/10/17,14:10,0.327,0.206,0.335,0.316,0.306,0.165,0.099,south-southeast,3.0,No
2017/10/17,14:20,0.331,0.203,0.333,0.317,0.309,0.166,0.099,south-southeast,2.6,No
2017/10/17,14:30,0.328,0.205,0.336,0.317,0.308,0.165,0.099,south-southeast,1.6,No
2017/10/17,14:40,0.331,0.205,0.334,0.316,0.309,0.165,0.099,southeast,1.6,No
2017/10/17,14:50,0.328,0.205,0.339,0.318,0.310,0.166,0.099,southeast,1.6,No
2017/10/17,15:00,0.330,0.208,0.335,0.317,0.309,0.166,0.100,southeast,1.5,No
2017/10/17,15:10,0.328,0.206,0.337,0.318,0.311,0.166,0.098,southeast,0.6,No
2017/10/17,15:20,0.332,0.207,0.334,0.316,0.308,0.166,0.099,east-southeast,1.6,No
2017/10/17,15:30,0.328,0.205,0.336,0.319,0.311,0.165,0.099,east-southeast,1.8,No
2017/10/17,15:40,0.330,0.207,0.335,0.315,0.308,0.165,0.100,east-southeast,1.3,No
2017/10/17,15:50,0.328,0.206,0.337,0.318,0.312,0.166,0.099,south-southeast,1.4,No
2017/10/17,16:00,0.330,0.206,0.334,0.316,0.308,0.165,0.099,south-southeast,0.8,No
2017/10/17,16:10,0.329,0.207,0.336,0.317,0.310,0.166,0.099,south-southeast,1.6,No
2017/10/17,16:20,0.330,0.206,0.335,0.316,0.308,0.167,0.099,south,1.4,No
2017/10/17,16:30,0.328,0.205,0.336,0.316,0.311,0.166,0.099,south-southeast,1.4,No
2017/10/17,16:40,0.330,0.206,0.335,0.318,0.308,0.166,0.099,south-southeast,1.3,No
2017/10/17,16:50,0.329,0.206,0.336,0.317,0.310,0.165,0.098,south,1.2,No
2017/10/17,17:00,0.330,0.207,0.334,0.318,0.308,0.166,0.099,south-southwest,0.6,No
2017/10/17,17:10,0.330,0.207,0.335,0.318,0.310,0.166,0.099,-,CALM,No
2017/10/17,17:20,0.329,0.207,0.338,0.318,0.309,0.166,0.098,south-southwest,1.5,No
2017/10/17,17:30,0.330,0.207,0.336,0.316,0.310,0.166,0.099,south-southwest,1.8,No
2017/10/17,17:40,0.330,0.206,0.337,0.318,0.309,0.166,0.099,south-southwest,1.2,No
2017/10/17,17:50,0.330,0.206,0.337,0.317,0.308,0.167,0.099,southwest,1.0,No
2017/10/17,18:00,0.330,0.205,0.336,0.317,0.311,0.167,0.100,-,CALM,No
2017/10/17,18:10,0.330,0.206,0.336,0.319,0.309,0.166,0.100,-,CALM,No
2017/10/17,18:20,0.329,0.207,0.335,0.316,0.310,0.167,0.099,-,CALM,No
2017/10/17,18:30,0.329,0.205,0.337,0.318,0.309,0.167,0.100,-,CALM,No
2017/10/17,18:40,0.331,0.206,0.336,0.318,0.309,0.168,0.099,south-southwest,2.4,No
2017/10/17,18:50,0.330,0.207,0.337,0.318,0.310,0.167,0.100,south-southwest,4.0,No
2017/10/17,19:00,0.330,0.206,0.338,0.318,0.309,0.167,0.099,south-southwest,4.7,No
2017/10/17,19:10,0.331,0.207,0.338,0.317,0.312,0.168,0.099,southwest,3.2,No
2017/10/17,19:20,0.330,0.207,0.338,0.321,0.309,0.167,0.100,west,1.6,No
2017/10/17,19:30,0.332,0.207,0.337,0.318,0.309,0.166,0.100,northwest,2.1,No
2017/10/17,19:40,0.330,0.207,0.337,0.318,0.310,0.167,0.100,northwest,3.8,No
2017/10/17,19:50,0.332,0.207,0.337,0.319,0.308,0.168,0.100,north-northwest,4.6,No
2017/10/17,20:00,0.329,0.207,0.335,0.317,0.311,0.168,0.100,north-northwest,5.5,No
2017/10/17,20:10,0.330,0.207,0.339,0.319,0.308,0.167,0.100,north-northwest,3.9,No
2017/10/17,20:20,0.332,0.207,0.336,0.318,0.310,0.168,0.100,north-northwest,3.9,No
2017/10/17,20:30,0.329,0.206,0.336,0.318,0.308,0.167,0.100,north-northwest,4.8,No
2017/10/17,20:40,0.332,0.208,0.336,0.318,0.308,0.167,0.100,north-northwest,4.2,No
2017/10/17,20:50,0.330,0.207,0.334,0.318,0.310,0.168,0.100,north-northwest,5.3,No
2017/10/17,21:00,0.329,0.206,0.337,0.319,0.308,0.166,0.099,north-northwest,5.1,No
2017/10/17,21:10,0.330,0.207,0.337,0.318,0.310,0.167,0.100,north-northwest,5.5,No
2017/10/17,21:20,0.330,0.207,0.335,0.317,0.308,0.167,0.100,north-northwest,4.6,No
2017/10/17,21:30,0.332,0.206,0.337,0.319,0.309,0.167,0.099,north-northwest,2.6,No
2017/10/17,21:40,0.330,0.207,0.336,0.319,0.311,0.167,0.100,west-northwest,1.4,No
2017/10/17,21:50,0.330,0.206,0.337,0.317,0.309,0.167,0.100,west,1.0,No
2017/10/17,22:00,0.331,0.206,0.338,0.318,0.309,0.167,0.099,-,CALM,No
2017/10/17,22:10,0.331,0.207,0.336,0.319,0.309,0.166,0.100,west-northwest,0.9,No
2017/10/17,22:20,0.330,0.207,0.337,0.318,0.309,0.166,0.099,northwest,1.0,No
2017/10/17,22:30,0.331,0.206,0.338,0.320,0.309,0.167,0.099,north-northwest,2.1,No
2017/10/17,22:40,0.330,0.206,0.336,0.319,0.309,0.168,0.100,northwest,3.1,No
2017/10/17,22:50,0.330,0.206,0.337,0.317,0.308,0.166,0.099,northwest,2.0,No
2017/10/17,23:00,0.331,0.205,0.337,0.319,0.308,0.167,0.100,west-northwest,1.2,No
2017/10/17,23:10,0.330,0.206,0.337,0.318,0.308,0.166,0.099,-,CALM,No
2017/10/17,23:20,0.330,0.206,0.339,0.317,0.309,0.166,0.099,-,CALM,No
2017/10/17,23:30,0.330,0.207,0.336,0.319,0.309,0.166,0.100,north-northwest,0.8,No
2017/10/17,23:40,0.330,0.206,0.335,0.319,0.308,0.166,0.099,west-southwest,1.4,No
2017/10/17,23:50,0.331,0.207,0.338,0.318,0.310,0.167,0.100,west,3.3,No
